ONEWEB-0057 (45160 NORAD) Tracking and Keplerian Element Data

This shows tracking and keplerian element data for the satellite.

Feedback or suggestion? Click here.




ElementValue
Catalog45160
NameONEWEB-0057
Epoch Orbit3877
Epoch Day298.25001157
Epoch Year2020
RAAN86.237
Inclination87.9326
Eccentricity0.0021157
Argument of Perigee121.9764
Mean Anonmoly70.7249
Mean Motion13.33447647
Decay Rate1.4E-07
L11 45160U 20008AF 20298.25001157 .00000014 00000-0 00000+0 0 9992
L22 45160 87.9326 86.2370 0021157 121.9764 70.7249 13.33447647 38771

Live tracking and technical data element details for ONEWEB-0057 (NORAD 45160). ONEWEB-0057 can be tracked NOW for your location showing map with azimuth and elevation plus other details from your city location.

Track the satellite on the map from your city or location and see movement details for azimuth, elevation, latitude, longitude, range, height, and movement on the map or in text.







IsCatalogInMostPopularTable: catalog: 45160, numindb: 54
Update: records affected: 1



GetName: 45160 ONEWEB-0057

Hit Count: updated at: Sat, 24 Oct 2020 22:52:42 GMT